Flag for Germany Weather past 2 weeks in Pirna, Saxony, Germany

Now
66 °F

Passing clouds.


Feels Like: 66 °F
Forecast: 55 / 64 °F
Wind: 1 mph from Northwest

Location: Dresden-Klotzsche

Current Time: Aug 30, 2014 at 9:12:36 PM

Latest Report: Aug 30, 2014 at 8:00 PM


Visibility: 22 mi

Pressure: 30.01 "Hg

Humidity: 61%

Dew point: 52 °F

Location of PirnaLocation

Historic Weather in Pirna — Graph

°F

Pirna temperature yesterday

Maximum temperature yesterday: 73 °F (at 1:00 PM)
Minimum temperature yesterday: 56 °F (at 4:00 AM)
Average temperature yesterday: 63 °F

Past Weeks' High & Low Weather Summary

 TemperatureHumidityPressure
High73 °F (Aug 29, 1:00 PM)98% (Aug 27, 7:00 AM)30.11 "Hg (Aug 27, 7:00 AM)
Low46 °F (Aug 25, 4:00 AM)33% (Aug 28, 3:00 PM)29.72 "Hg (Aug 18, 10:00 AM)
Average59 °F71%29.94 "Hg
* Reported Aug 15 7:00 PM — Aug 30 7:00 PM, Pirna, Weather by CustomWeather, © 2014

Note: Actual official high and low records may vary slightly from our data, if they occured in-between our weather recording intervals... More about our weather records

Advertising

Pirna weather history for previous 24 hours

 ConditionsComfort  
Time TempWeatherWind HumidityBarometerVisibility
7:00 PM
Aug 30
70 °FPartly sunny.2 mph55%30.00 "Hg22 mi
6:00 PM68 °FLight rain. Overcast.3 mph59%30.01 "Hg25 mi
4:00 PM71 °FPartly sunny.5 mph49%30.01 "Hg25 mi
3:00 PM72 °FPartly sunny.3 mph44%30.02 "Hg22 mi
2:00 PM71 °FPartly sunny.6 mph50%30.02 "Hg22 mi
1:00 PM69 °FOvercast.3 mph65%30.03 "Hg16 mi
12:00 PM67 °FOvercast.3 mph74%30.05 "Hg12 mi
10:00 AM64 °FScattered clouds.1 mph82%30.04 "Hg9 mi
9:00 AM58 °FOvercast.2 mph93%30.05 "Hg6 mi
8:00 AM58 °FOvercast.2 mph94%30.04 "Hg5 mi
7:00 AM57 °FCool.2 mph93%30.04 "HgN/A
6:00 AM57 °FOvercast.2 mph93%30.03 "Hg14 mi
4:00 AM56 °FOvercast.5 mph92%30.02 "Hg12 mi
3:00 AM57 °FPassing clouds.3 mph91%30.03 "Hg12 mi
2:00 AM58 °FPassing clouds.3 mph93%30.03 "Hg12 mi
1:00 AM59 °FPassing clouds.3 mph92%30.03 "Hg16 mi
12:00 AM59 °FPassing clouds.3 mph91%30.03 "Hg12 mi
9:00 PM
Aug 29
62 °FOvercast.2 mph83%30.00 "Hg16 mi
Weather by CustomWeather, © 2014

See weather overviewHow to use our weather pages